GW6962 Weather Reports


time (UTC)temp
F
wind
direction
speed
knots
gust
knots
rain 1hr
in
rain 24hr
in
rain mn
in
humidity
%
barometer
mb
20260509223650 64 206 7.0 7.8 0.00 0.00 0.00 55 994.0
20260509222145 62 198 3.5 3.5 0.00 0.00 0.00 57 993.7
20260509220645 63 199 4.3 5.2 0.00 0.00 0.00 54 993.9
20260509215140 64 195 5.2 7.8 0.00 0.00 0.00 55 993.9
20260509213637 64 211 4.3 5.2 0.00 0.00 0.00 54 993.9
20260509212133 62 182 3.5 3.5 0.00 0.00 0.00 56 994.2
20260509210628 63 183 5.2 8.7 0.00 0.00 0.00 54 994.1
20260509205126 62 212 5.2 7.0 0.00 0.00 0.00 55 994.3
20260509203621 63 201 7.8 8.7 0.00 0.00 0.00 54 994.5
20260509202121 63 203 7.0 11.3 0.00 0.00 0.00 54 994.6
20260509200620 64 172 5.2 6.1 0.00 0.00 0.00 53 994.6
20260509195119 62 183 7.8 9.6 0.00 0.00 0.00 55 994.9
20260509193618 63 183 7.0 8.7 0.00 0.00 0.00 55 994.7
20260509192117 63 186 7.8 9.6 0.00 0.00 0.00 54 995.0
20260509190617 63 197 5.2 6.1 0.00 0.00 0.00 52 995.2
20260509185113 64 218 7.8 7.8 0.00 0.00 0.00 46 995.5
20260509183609 65 201 7.8 7.8 0.00 0.00 0.00 46 995.6
20260509182104 64 210 5.2 6.1 0.00 0.00 0.00 47 995.5
20260509180602 65 171 7.8 11.3 0.00 0.00 0.00 44 995.5
20260509175058 64 181 3.5 3.5 0.00 0.00 0.00 46 995.6
20260509173555 64 202 5.2 7.0 0.00 0.00 0.00 49 995.8
20260509172050 62 195 6.1 7.0 0.00 0.00 0.00 50 996.1
20260509170550 62 199 7.8 7.8 0.00 0.00 0.00 50 996.3
20260509165046 62 212 7.0 9.6 0.00 0.00 0.00 52 996.5
20260509163542 61 172 2.6 2.6 0.00 0.00 0.00 53 996.4
20260509162042 61 209 6.1 7.0 0.00 0.00 0.00 52 996.6
20260509160541 62 232 10.4 13.0 0.00 0.00 0.00 49 997.0
20260509155040 62 209 5.2 6.1 0.00 0.00 0.00 51 997.1
20260509153537 62 171 5.2 7.0 0.00 0.00 0.00 50 997.1
20260509152033 62 190 6.1 7.8 0.00 0.00 0.00 45 997.5
20260509150530 62 207 2.6 2.6 0.00 0.00 0.00 46 997.5
20260509145031 61 149 4.3 6.1 0.00 0.00 0.00 49 997.6
20260509143528 61 215 5.2 6.1 0.00 0.00 0.00 48 997.7
20260509142028 61 164 3.5 3.5 0.00 0.00 0.00 45 997.8
20260509140524 60 197 4.3 5.2 0.00 0.00 0.00 50 997.7
20260509135023 60 172 4.3 6.1 0.00 0.00 0.00 51 998.0
20260509133519 58 157 3.5 3.5 0.00 0.00 0.00 50 998.1
20260509132020 59 156 5.2 7.8 0.00 0.00 0.00 46 998.2
20260509130519 58 135 6.1 7.8 0.00 0.00 0.00 45 998.2
20260509125015 56 175 2.6 3.5 0.00 0.00 0.00 44 998.3
20260509123513 56 166 6.1 7.8 0.00 0.00 0.00 41 998.4
20260509122009 55 150 3.5 3.5 0.00 0.00 0.00 42 998.5
20260509120507 53 131 1.7 2.6 0.00 0.00 0.00 46 998.7
20260509115005 53 125 0.9 0.9 0.00 0.00 0.00 50 998.7
20260509113505 51 135 0.9 0.9 0.00 0.00 0.00 49 998.6
20260509112001 48 145 1.7 1.7 0.00 0.00 0.00 52 998.9
20260509110458 45 121 0.9 0.9 0.00 0.00 0.00 56 998.6
20260509104957 42 142 0.9 0.9 0.00 0.00 0.00 61 998.7
20260509103454 40 143 0.9 0.9 0.00 0.00 0.00 63 998.4
20260509101951 39 145 0.9 0.9 0.00 0.00 0.00 64 998.6
20260509100448 39 142 0.0 0.0 0.00 0.00 0.00 63 998.4
20260509094944 40 145 0.9 0.9 0.00 0.00 0.00 61 998.6
20260509093442 40 147 1.7 1.7 0.00 0.00 0.00 60 998.5
20260509091942 40 151 1.7 0.9 0.00 0.00 0.00 60 998.8
20260509090438 40 153 1.7 1.7 0.00 0.00 0.00 60 998.8
20260509084934 40 152 1.7 1.7 0.00 0.00 0.00 59 998.9
20260509083432 40 154 1.7 1.7 0.00 0.00 0.00 60 998.9
20260509081929 40 156 1.7 1.7 0.00 0.00 0.00 60 999.1
20260509080427 40 152 0.9 0.9 0.00 0.00 0.00 60 999.1
20260509074925 40 166 2.6 2.6 0.00 0.00 0.00 59 999.3
20260509073421 39 162 1.7 1.7 0.00 0.00 0.00 59 999.2
20260509071916 40 155 1.7 1.7 0.00 0.00 0.00 58 999.5
20260509070413 39 149 1.7 1.7 0.00 0.00 0.00 59 999.3
20260509064913 39 158 1.7 1.7 0.00 0.00 0.00 61 999.3
20260509063409 40 145 0.9 0.9 0.00 0.00 0.00 59 999.5
20260509061907 39 152 1.7 1.7 0.00 0.00 0.00 60 999.6
20260509060404 39 154 0.9 0.9 0.00 0.00 0.00 61 999.6
20260509054904 39 157 1.7 1.7 0.00 0.00 0.00 59 999.9
20260509053402 40 159 1.7 1.7 0.00 0.00 0.00 57 1000.0
20260509051900 40 160 1.7 1.7 0.00 0.00 0.00 57 999.9
20260509050357 40 153 1.7 1.7 0.00 0.00 0.00 57 1000.3
20260509044854 39 159 1.7 1.7 0.00 0.00 0.00 58 1000.4
20260509043350 39 160 1.7 1.7 0.00 0.00 0.00 57 1000.5
20260509041845 39 158 1.7 1.7 0.00 0.00 0.00 58 1000.4
20260509040344 39 162 1.7 1.7 0.00 0.00 0.00 58 1000.2
20260509034840 39 161 1.7 1.7 0.00 0.00 0.00 58 1000.2
20260509033338 39 166 1.7 1.7 0.00 0.00 0.00 60 1000.1
20260509031835 39 156 1.7 1.7 0.00 0.00 0.00 62 1000.4
20260509030333 40 164 2.6 2.6 0.00 0.00 0.00 62 1000.6
20260509024833 39 161 1.7 1.7 0.00 0.00 0.00 66 1000.7
20260509023330 40 163 2.6 2.6 0.00 0.00 0.00 64 1000.8
20260509021826 41 161 2.6 2.6 0.00 0.00 0.00 61 1000.7
20260509020325 42 161 1.7 1.7 0.00 0.00 0.00 59 1000.9
20260509014822 42 156 1.7 1.7 0.00 0.00 0.00 58 1000.8
20260509013318 43 159 1.7 1.7 0.00 0.00 0.00 57 1000.4
20260509011814 42 150 0.9 0.9 0.00 0.00 0.00 57 1000.5
20260509010312 42 147 0.9 0.9 0.00 0.00 0.00 57 1000.2
20260509004807 42 140 0.9 0.9 0.00 0.00 0.00 58 1000.0
20260509003305 44 150 0.9 0.9 0.00 0.00 0.00 55 999.8
20260509001803 46 152 0.9 0.9 0.00 0.00 0.00 51 1000.1
20260509000300 47 166 1.7 1.7 0.00 0.00 0.00 49 1000.0
20260508234756 49 181 3.5 3.5 0.00 0.00 0.00 46 999.8
20260508233256 50 190 5.2 6.1 0.00 0.00 0.00 46 999.7
20260508231753 50 189 1.7 1.7 0.00 0.00 0.00 47 999.7
20260508230253 50 190 3.5 5.2 0.00 0.00 0.00 46 999.9
20260508224751 51 245 8.7 8.7 0.00 0.00 0.00 43 999.8